777  
ASUS41 KCTP 292010  
RWRCTP  
 
REGIONAL WEATHER ROUNDUP  
NATIONAL WEATHER SERVICE STATE COLLEGE PA  
400 PM EDT MON MAY 29 2017  
 
NOTE: "FAIR" INDICATES FEW OR NO CLOUDS BELOW 12,000 FEET WITH NO  
SIGNIFICANT WEATHER AND/OR S TO VISIBILITY
.  
 
* = STATION THAT DOES NOT REPORT PRECIPITATION /E.G. RAIN...SNOW...ETC/  
THUNDER OR FOG.
 
 
PAZ002>004-007>009-013>016-020>023-029>032-292100-  
WESTERN PENNSYLVANIA  
 
CITY SKY/WX TMP DP RH WIND PRES REMARKS
 
ERIE SUNNY 77 42 28 W8 29.88S  
MEADVILLE MOSUNNY 74 50 42 SW13G20 29.91S  
FRANKLIN* PTSUNNY 73 48 40 SW10G16 29.94S  
NEW CASTLE MOCLDY 77 51 40 SW8 29.93S  
BEAVER COUNTY NOT AVBL  
BUTLER* SUNNY 77 54 44 SW9 29.94S  
PITTSBURGH INT MOSUNNY 77 49 37 SW8G18 29.94R  
PITTSBURGH PTSUNNY 77 47 34 W9 29.95R  
INDIANA* MOSUNNY 73 52 46 W12G17 29.99R  
LATROBE PTSUNNY 77 50 38 W17 29.97R  
WASHINGTON CO* SUNNY 75 52 43 W8 29.98S  

 
 
PAZ004>006-010>012-017>019-024>028-033>037-041-042-045-046-049>053-292100-  
CENTRAL PENNSYLVANIA  
 
CITY SKY/WX TMP DP RH WIND PRES REMARKS
 
BRADFORD MOSUNNY 72 46 39 W10 29.94R  
DUBOIS CLOUDY 73 48 41 W7 29.94R  
CLEARFIELD CLOUDY 72 51 47 W9G17 29.94R  
JOHNSTOWN PTSUNNY 72 50 45 W9 29.99R  
ALTOONA CLOUDY 77 49 37 NW10 29.96R  
STATE COLLEGE MOSUNNY 75 54 46 W15 29.93R  
WILLIAMSPORT MOSUNNY 74 63 68 NE3 29.89S  
SELINSGROVE PTSUNNY 72 63 73 SE7 29.91S  
FT INDIANTOWN CLOUDY 63 63 100 E8 29.97R  
CAPITAL CITY CLOUDY 73 62 68 SE12 29.94R  
HARRISBURG CLOUDY 70 63 78 SE10 29.94R  
YORK PTSUNNY 75 66 73 SE10 29.93S  

 
 
PAZ038>040-043-044-047-048-054-055-060>062-067>071-292100-  
EASTERN PENNSYLVANIA  
 
CITY SKY/WX TMP DP RH WIND PRES REMARKS
 
SCRANTON CLOUDY 62 56 80 VRB6 29.94S  
MOUNT POCONO FOG 53 53 100 SE8 29.98S VSB 1/4  
ALLENTOWN CLOUDY 62 55 77 SE6 29.98S  
QUAKERTOWN* CLOUDY 59 57 94 SE6 30.00R  
READING CLOUDY 62 60 93 SE7 29.97R  
LANCASTER CLOUDY 66 63 90 SE7 29.97R  
COATESVILLE CLOUDY 61 61 100 VRB3 30.00R  
POTTSTOWN CLOUDY 59 57 93 VRB5 30.00R  
BLUE BELL CLOUDY 59 55 88 CALM 30.00S  
DOYLESTOWN CLOUDY 59 58 96 CALM 29.99R  
WILLOW GROVE NOT AVBL  
NORTH PHILA CLOUDY 62 57 83 SE7 30.01R  
PHILADELPHIA CLOUDY 63 57 81 E7 30.00R  

 
 
 
CLICK HERE TO GO TO PREVIOUS BULLETINS.

The Nexlab PA Page Main Text Page